This demonstration page uses our WeatherBlox Daily Observations layout. Learn more.

Left ArrowRight Arrow

36.17497, -115.13722

Hourly Observations for September 29, 2015

Temp ( °F °C ) Dew Point ( °F °C ) Humidity (%) Winds ( mph kmh ) Pressure ( in mb ) Visibility ( mi km ) Precip ( " mm )
12:53 am 00:53 Clear 81 27.2 35 1.7 19 19 N N/A 29.82 1010 10 16 N/A
1:53 am 01:53 Clear 78 25.6 37 2.8 23 23 N N/A 29.83 1010 10 16 N/A
2:53 am 02:53 Clear 75 23.9 40 4.4 28 28 W 5 7 29.83 1010 10 16 N/A
3:53 am 03:53 Clear 75 23.9 38 3.3 26 26 N N/A 29.83 1010 10 16 N/A
4:53 am 04:53 Clear 75 23.9 39 3.9 27 27 WNW 7 11 29.84 1010 10 16 N/A
5:53 am 05:53 Clear 74 23.3 39 3.9 28 28 W 6 9 29.85 1011 10 16 N/A
6:53 am 06:53 Sunny 74 23.3 38 3.3 27 27 NNE 5 7 29.88 1012 10 16 N/A
7:53 am 07:53 Sunny 77 25 39 3.9 26 26 N 3 6 29.90 1013 10 16 N/A
8:53 am 08:53 Sunny 82 27.8 40 4.4 22 22 N N/A 29.91 1013 10 16 N/A
9:53 am 09:53 Sunny 87 30.6 39 3.9 18 18 N 6 9 29.91 1013 10 16 N/A
10:53 am 10:53 Sunny 89 31.7 37 2.8 16 16 N N/A 29.90 1013 10 16 N/A
11:53 am 11:53 Sunny 93 33.9 36 2.2 13 13 ESE 8 13 29.89 1012 10 16 N/A
12:53 pm 12:53 Sunny 95 35 40 4.4 15 15 SE 6 9 29.86 1011 10 16 N/A
1:53 pm 13:53 Sunny 97 36.1 42 5.6 15 15 VRB 7 11 29.83 1010 10 16 N/A
2:53 pm 14:53 Sunny 98 36.7 41 5 14 14 SSE 10 17 29.80 1009 10 16 N/A
3:53 pm 15:53 Sunny 98 36.7 43 6.1 15 15 SE 12 19 29.79 1009 10 16 N/A
4:53 pm 16:53 Sunny 98 36.7 43 6.1 15 15 SE 12 19 29.77 1008 10 16 N/A
5:53 pm 17:53 Sunny 97 36.1 43 6.1 16 16 SE 12 19 29.78 1008 10 16 N/A
6:53 pm 18:53 Clear 94 34.4 43 6.1 17 17 ESE 9 15 29.78 1008 10 16 N/A
7:53 pm 19:53 Clear 92 33.3 43 6.1 18 18 SE 8 13 29.79 1009 10 16 N/A
8:53 pm 20:53 Clear 89 31.7 43 6.1 20 20 NNE 5 7 29.81 1009 10 16 N/A
9:53 pm 21:53 Clear 86 30 44 6.7 23 23 NW 6 9 29.82 1010 10 16 N/A
10:53 pm 22:53 Clear 84 28.9 45 7.2 25 25 WNW 3 6 29.83 1010 10 16 N/A
11:53 pm 23:53 Clear 80 26.7 45 7.2 29 29 NNW 3 6 29.83 1010 10 16 N/A

Powered by AerisWeather